Terminal Aerodrome Forecast
Issued by NWS Spokane, WA

Home | Current Version | Previous Version | Text Only | Print | Product List | Glossary On
Versions: 1 2 3 4 5 6 7 8 9 10 11 12 13 14 15 16 17 18 19 20 21 22 23 24 25 26 27 28 29 30 31 32 33 34 35 36 37 38 39 40 41 42 43
000
FTUS46 KOTX 270539
TAFEAT
TAF
KEAT 270539Z 2706/2806 00000KT 5SM BR VCSH OVC004
     FM270700 29003KT 4SM BR OVC015
     FM271700 30007KT P6SM BKN015 OVC040
     FM272000 31008KT P6SM BKN050
     FM272200 30012KT P6SM OVC070
      AMD NOT SKED=

USA.gov is the U.S. government's official web portal to all federal, state and local government web resources and services.